Time,TemperatureF,DewpointF,PressureIn,WindDirection,WindDirectionDegrees,WindSpeedMPH,WindSpeedGustMPH,Humidity,HourlyPrecipIn,Conditions,Clouds,dailyrainin,SoftwareType,DateUTC
2015-01-31 00:04:00,10.6,-9.5,29.41,North,8,0.0,0.0,39,0.00,,,0.00,VWS V14.00,2015-01-31 05:04:00,
2015-01-31 00:09:00,10.4,-9.6,29.41,North,8,0.0,0.0,39,0.00,,,0.00,VWS V14.00,2015-01-31 05:09:00,
2015-01-31 00:14:00,10.2,-9.8,29.41,North,8,0.0,0.0,39,0.00,,,0.00,VWS V14.00,2015-01-31 05:14:00,
2015-01-31 00:19:00,10.2,-9.8,29.41,North,8,0.0,0.0,39,0.00,,,0.00,VWS V14.00,2015-01-31 05:19:00,
2015-01-31 00:24:00,10.4,-9.6,29.41,North,8,0.0,0.0,39,0.00,,,0.00,VWS V14.00,2015-01-31 05:24:00,
2015-01-31 00:29:00,10.6,-9.5,29.41,North,8,0.0,0.0,39,0.00,,,0.00,VWS V14.00,2015-01-31 05:29:00,
2015-01-31 00:34:00,10.4,-9.6,29.41,North,8,0.0,0.0,39,0.00,,,0.00,VWS V14.00,2015-01-31 05:34:00,
2015-01-31 00:39:00,10.0,-10.0,29.41,North,8,0.0,0.0,39,0.00,,,0.00,VWS V14.00,2015-01-31 05:39:00,
2015-01-31 00:44:00,10.0,-10.0,29.41,North,8,0.0,0.0,39,0.00,,,0.00,VWS V14.00,2015-01-31 05:44:00,
2015-01-31 00:50:00,10.0,-10.0,29.41,North,8,0.0,0.0,39,0.00,,,0.00,VWS V14.00,2015-01-31 05:50:00,
2015-01-31 00:55:00,10.4,-9.6,29.41,North,8,0.0,0.0,39,0.00,,,0.00,VWS V14.00,2015-01-31 05:55:00,
2015-01-31 01:00:00,10.4,-9.6,29.41,North,8,0.0,0.0,39,0.00,,,0.00,VWS V14.00,2015-01-31 06:00:00,
2015-01-31 01:05:00,10.4,-9.6,29.41,North,8,0.0,0.0,39,0.00,,,0.00,VWS V14.00,2015-01-31 06:05:00,
2015-01-31 01:10:00,10.4,-9.6,29.41,North,8,0.0,0.0,39,0.00,,,0.00,VWS V14.00,2015-01-31 06:10:00,
2015-01-31 01:16:00,10.4,-9.6,29.38,North,8,0.0,0.0,39,0.00,,,0.00,VWS V14.00,2015-01-31 06:16:00,
2015-01-31 01:21:00,10.4,-9.6,29.38,North,8,0.0,0.0,39,0.00,,,0.00,VWS V14.00,2015-01-31 06:21:00,
2015-01-31 01:26:00,10.2,-9.8,29.38,North,8,0.0,0.0,39,0.00,,,0.00,VWS V14.00,2015-01-31 06:26:00,
2015-01-31 01:31:00,10.4,-9.6,29.38,North,8,0.0,0.0,39,0.00,,,0.00,VWS V14.00,2015-01-31 06:31:00,
2015-01-31 01:36:00,10.9,-9.1,29.38,North,8,0.0,0.0,39,0.00,,,0.00,VWS V14.00,2015-01-31 06:36:00,
2015-01-31 01:41:00,11.3,-8.8,29.38,North,8,0.0,0.0,39,0.00,,,0.00,VWS V14.00,2015-01-31 06:41:00,
2015-01-31 01:46:00,11.3,-8.8,29.38,North,8,0.0,0.0,39,0.00,,,0.00,VWS V14.00,2015-01-31 06:46:00,
2015-01-31 01:51:00,11.1,-9.0,29.38,North,8,0.0,0.0,39,0.00,,,0.00,VWS V14.00,2015-01-31 06:51:00,
2015-01-31 01:56:00,10.8,-9.3,29.38,North,8,0.0,0.0,39,0.00,,,0.00,VWS V14.00,2015-01-31 06:56:00,
2015-01-31 02:01:00,10.8,-9.3,29.38,North,8,0.0,0.0,39,0.00,,,0.00,VWS V14.00,2015-01-31 07:01:00,
2015-01-31 02:06:00,10.6,-9.5,29.38,North,8,0.0,0.0,39,0.00,,,0.00,VWS V14.00,2015-01-31 07:06:00,
2015-01-31 02:11:00,10.4,-9.6,29.38,North,8,0.0,0.0,39,0.00,,,0.00,VWS V14.00,2015-01-31 07:11:00,
2015-01-31 02:16:00,10.4,-9.6,29.38,North,8,0.0,0.0,39,0.00,,,0.00,VWS V14.00,2015-01-31 07:16:00,
2015-01-31 02:21:00,10.2,-9.8,29.38,North,8,0.0,0.0,39,0.00,,,0.00,VWS V14.00,2015-01-31 07:21:00,
2015-01-31 02:26:00,10.6,-9.5,29.38,North,8,0.0,0.0,39,0.00,,,0.00,VWS V14.00,2015-01-31 07:26:00,
2015-01-31 02:31:00,10.8,-9.3,29.38,North,8,0.0,0.0,39,0.00,,,0.00,VWS V14.00,2015-01-31 07:31:00,
2015-01-31 02:36:00,10.6,-9.5,29.38,North,8,0.0,0.0,39,0.00,,,0.00,VWS V14.00,2015-01-31 07:36:00,
2015-01-31 02:41:00,10.0,-10.0,29.38,North,8,0.0,0.0,39,0.00,,,0.00,VWS V14.00,2015-01-31 07:41:00,
2015-01-31 02:46:00,9.5,-10.5,29.38,North,8,0.0,0.0,39,0.00,,,0.00,VWS V14.00,2015-01-31 07:46:00,
2015-01-31 02:52:00,9.1,-10.8,29.38,North,8,0.0,0.0,39,0.00,,,0.00,VWS V14.00,2015-01-31 07:52:00,
2015-01-31 02:57:00,9.0,-10.9,29.38,North,8,0.0,0.0,39,0.00,,,0.00,VWS V14.00,2015-01-31 07:57:00,
2015-01-31 03:02:00,8.6,-11.3,29.35,North,8,0.0,0.0,39,0.00,,,0.00,VWS V14.00,2015-01-31 08:02:00,
2015-01-31 03:07:00,8.2,-11.6,29.35,North,8,0.0,0.0,39,0.00,,,0.00,VWS V14.00,2015-01-31 08:07:00,
2015-01-31 03:12:00,7.9,-11.9,29.35,North,8,0.0,0.0,39,0.00,,,0.00,VWS V14.00,2015-01-31 08:12:00,
2015-01-31 03:17:00,7.7,-12.1,29.35,North,8,0.0,0.0,39,0.00,,,0.00,VWS V14.00,2015-01-31 08:17:00,
2015-01-31 03:22:00,7.7,-12.1,29.35,North,8,0.0,0.0,39,0.00,,,0.00,VWS V14.00,2015-01-31 08:22:00,
2015-01-31 03:27:00,8.1,-11.8,29.35,North,8,0.0,0.0,39,0.00,,,0.00,VWS V14.00,2015-01-31 08:27:00,
2015-01-31 03:32:00,8.2,-11.6,29.35,North,8,0.0,0.0,39,0.00,,,0.00,VWS V14.00,2015-01-31 08:32:00,
2015-01-31 03:37:00,8.4,-11.4,29.35,North,8,0.0,0.0,39,0.00,,,0.00,VWS V14.00,2015-01-31 08:37:00,
2015-01-31 03:42:00,8.6,-11.3,29.35,North,8,0.0,0.0,39,0.00,,,0.00,VWS V14.00,2015-01-31 08:42:00,
2015-01-31 03:47:00,8.2,-11.6,29.35,North,8,0.0,0.0,39,0.00,,,0.00,VWS V14.00,2015-01-31 08:47:00,
2015-01-31 03:52:00,7.9,-11.9,29.35,North,8,0.0,0.0,39,0.00,,,0.00,VWS V14.00,2015-01-31 08:52:00,
2015-01-31 03:57:00,7.5,-12.2,29.35,North,8,0.0,0.0,39,0.00,,,0.00,VWS V14.00,2015-01-31 08:57:00,
2015-01-31 04:02:00,7.3,-12.4,29.35,North,8,0.0,0.0,39,0.00,,,0.00,VWS V14.00,2015-01-31 09:02:00,
2015-01-31 04:07:00,7.5,-12.2,29.35,North,8,0.0,0.0,39,0.00,,,0.00,VWS V14.00,2015-01-31 09:07:00,
2015-01-31 04:12:00,7.7,-12.1,29.35,North,8,0.0,0.0,39,0.00,,,0.00,VWS V14.00,2015-01-31 09:12:00,
2015-01-31 04:17:00,7.9,-11.9,29.35,North,8,0.0,0.0,39,0.00,,,0.00,VWS V14.00,2015-01-31 09:17:00,
2015-01-31 04:23:00,7.9,-11.9,29.35,North,8,0.0,0.0,39,0.00,,,0.00,VWS V14.00,2015-01-31 09:23:00,
2015-01-31 04:28:00,7.9,-11.9,29.35,North,8,0.0,0.0,39,0.00,,,0.00,VWS V14.00,2015-01-31 09:28:00,
2015-01-31 04:33:00,7.5,-12.2,29.35,North,8,0.0,0.0,39,0.00,,,0.00,VWS V14.00,2015-01-31 09:33:00,
2015-01-31 04:38:00,7.5,-12.2,29.35,North,8,0.0,0.0,39,0.00,,,0.00,VWS V14.00,2015-01-31 09:38:00,
2015-01-31 04:43:00,7.5,-12.2,29.35,North,8,0.0,0.0,39,0.00,,,0.00,VWS V14.00,2015-01-31 09:43:00,
2015-01-31 04:48:00,7.3,-12.4,29.35,North,8,0.0,0.0,39,0.00,,,0.00,VWS V14.00,2015-01-31 09:48:00,
2015-01-31 04:53:00,7.2,-12.6,29.35,North,8,0.0,0.0,39,0.00,,,0.00,VWS V14.00,2015-01-31 09:53:00,
2015-01-31 04:58:00,7.2,-12.6,29.35,North,8,0.0,0.0,39,0.00,,,0.00,VWS V14.00,2015-01-31 09:58:00,
2015-01-31 05:03:00,7.2,-12.6,29.35,North,8,0.0,0.0,39,0.00,,,0.00,VWS V14.00,2015-01-31 10:03:00,
2015-01-31 05:08:00,7.5,-12.2,29.35,North,8,0.0,0.0,39,0.00,,,0.00,VWS V14.00,2015-01-31 10:08:00,
2015-01-31 05:13:00,7.5,-12.2,29.35,North,8,0.0,0.0,39,0.00,,,0.00,VWS V14.00,2015-01-31 10:13:00,
2015-01-31 05:18:00,7.7,-12.1,29.35,North,8,0.0,0.0,39,0.00,,,0.00,VWS V14.00,2015-01-31 10:18:00,
2015-01-31 05:23:00,7.9,-11.9,29.35,North,8,0.0,0.0,39,0.00,,,0.00,VWS V14.00,2015-01-31 10:23:00,
2015-01-31 05:28:00,8.4,-11.4,29.35,North,8,0.0,0.0,39,0.00,,,0.00,VWS V14.00,2015-01-31 10:28:00,
2015-01-31 05:33:00,8.8,-11.1,29.35,North,8,0.0,0.0,39,0.00,,,0.00,VWS V14.00,2015-01-31 10:33:00,
2015-01-31 05:38:00,8.8,-11.1,29.35,North,8,0.0,0.0,39,0.00,,,0.00,VWS V14.00,2015-01-31 10:38:00,
2015-01-31 05:43:00,8.6,-11.3,29.32,North,8,0.0,0.0,39,0.00,,,0.00,VWS V14.00,2015-01-31 10:43:00,
2015-01-31 05:48:00,8.4,-11.4,29.32,North,8,0.0,0.0,39,0.00,,,0.00,VWS V14.00,2015-01-31 10:48:00,
2015-01-31 05:54:00,8.4,-11.4,29.32,North,8,0.0,0.0,39,0.00,,,0.00,VWS V14.00,2015-01-31 10:54:00,
2015-01-31 05:59:00,8.2,-11.6,29.32,North,8,0.0,0.0,39,0.00,,,0.00,VWS V14.00,2015-01-31 10:59:00,
2015-01-31 06:04:00,8.2,-11.6,29.32,North,8,0.0,0.0,39,0.00,,,0.00,VWS V14.00,2015-01-31 11:04:00,
2015-01-31 06:09:00,8.6,-11.3,29.32,North,8,0.0,0.0,39,0.00,,,0.00,VWS V14.00,2015-01-31 11:09:00,
2015-01-31 06:14:00,9.0,-10.9,29.32,North,8,0.0,0.0,39,0.00,,,0.00,VWS V14.00,2015-01-31 11:14:00,
2015-01-31 06:19:00,9.3,-10.6,29.32,North,8,0.0,0.0,39,0.00,,,0.00,VWS V14.00,2015-01-31 11:19:00,
2015-01-31 06:24:00,9.5,-10.5,29.32,North,8,0.0,0.0,39,0.00,,,0.00,VWS V14.00,2015-01-31 11:24:00,
2015-01-31 06:29:00,9.5,-10.5,29.32,North,8,0.0,0.0,39,0.00,,,0.00,VWS V14.00,2015-01-31 11:29:00,
2015-01-31 06:34:00,9.7,-10.3,29.32,North,8,0.0,0.0,39,0.00,,,0.00,VWS V14.00,2015-01-31 11:34:00,
2015-01-31 06:39:00,9.7,-10.3,29.32,North,8,0.0,0.0,39,0.00,,,0.00,VWS V14.00,2015-01-31 11:39:00,
2015-01-31 06:44:00,9.9,-10.1,29.32,North,8,0.0,0.0,39,0.00,,,0.00,VWS V14.00,2015-01-31 11:44:00,
2015-01-31 06:49:00,10.2,-9.8,29.32,North,8,0.0,0.0,39,0.00,,,0.00,VWS V14.00,2015-01-31 11:49:00,
2015-01-31 06:54:00,10.4,-9.6,29.32,North,8,0.0,0.0,39,0.00,,,0.00,VWS V14.00,2015-01-31 11:54:00,
2015-01-31 06:59:00,10.6,-9.5,29.29,South,185,3.1,3.6,39,0.00,,,0.00,VWS V14.00,2015-01-31 11:59:00,
2015-01-31 07:04:00,11.3,-8.8,29.29,SW,217,0.0,0.0,39,0.00,,,0.00,VWS V14.00,2015-01-31 12:04:00,
2015-01-31 07:09:00,11.3,-8.8,29.29,South,190,0.0,0.0,39,0.00,,,0.00,VWS V14.00,2015-01-31 12:09:00,
2015-01-31 07:14:00,11.3,-8.8,29.29,South,190,2.7,2.7,39,0.00,,,0.00,VWS V14.00,2015-01-31 12:14:00,
2015-01-31 07:19:00,11.7,-8.5,29.29,SSW,198,0.0,3.6,39,0.00,,,0.00,VWS V14.00,2015-01-31 12:19:00,
2015-01-31 07:24:00,12.4,-7.8,29.29,SSW,193,0.0,4.0,39,0.00,,,0.00,VWS V14.00,2015-01-31 12:24:00,
2015-01-31 07:30:00,12.6,-7.7,29.29,SSW,193,0.0,4.0,39,0.00,,,0.00,VWS V14.00,2015-01-31 12:30:00,
2015-01-31 07:35:00,12.9,-7.4,29.29,SSW,193,0.0,0.0,39,0.00,,,0.00,VWS V14.00,2015-01-31 12:35:00,
2015-01-31 07:40:00,13.3,-7.0,29.29,SSW,193,0.0,0.0,39,0.00,,,0.00,VWS V14.00,2015-01-31 12:40:00,
2015-01-31 07:45:00,13.5,-6.9,29.29,SSW,193,0.0,0.0,39,0.00,,,0.00,VWS V14.00,2015-01-31 12:45:00,
2015-01-31 07:50:00,13.6,-6.7,29.29,SSW,193,0.0,0.0,39,0.00,,,0.00,VWS V14.00,2015-01-31 12:50:00,
2015-01-31 07:55:00,13.8,-6.6,29.29,SSW,193,0.0,0.0,39,0.00,,,0.00,VWS V14.00,2015-01-31 12:55:00,
2015-01-31 08:00:00,14.2,5.2,29.29,SSW,193,0.0,4.0,67,0.00,,,0.00,VWS V14.00,2015-01-31 13:00:00,
2015-01-31 08:05:00,14.7,5.8,29.29,SSW,193,0.0,0.0,67,0.00,,,0.00,VWS V14.00,2015-01-31 13:05:00,
2015-01-31 08:10:00,14.7,5.8,29.29,SW,233,0.0,4.9,67,0.00,,,0.00,VWS V14.00,2015-01-31 13:10:00,
2015-01-31 08:15:00,15.1,6.1,29.29,SW,233,0.0,4.9,67,0.00,,,0.00,VWS V14.00,2015-01-31 13:15:00,
2015-01-31 08:20:00,15.4,6.5,29.29,SW,233,0.0,4.9,67,0.00,,,0.00,VWS V14.00,2015-01-31 13:20:00,
2015-01-31 08:25:00,15.8,6.8,29.29,SW,233,0.0,4.9,67,0.00,,,0.00,VWS V14.00,2015-01-31 13:25:00,
2015-01-31 08:30:00,16.2,7.2,29.29,SW,233,0.0,4.9,67,0.00,,,0.00,VWS V14.00,2015-01-31 13:30:00,
2015-01-31 08:35:00,16.5,7.5,29.29,SW,233,0.0,0.0,67,0.00,,,0.00,VWS V14.00,2015-01-31 13:35:00,
2015-01-31 08:40:00,16.9,7.8,29.29,SW,233,0.0,3.6,67,0.00,,,0.00,VWS V14.00,2015-01-31 13:40:00,
2015-01-31 08:45:00,17.2,8.2,29.29,South,190,5.8,5.8,67,0.00,,,0.00,VWS V14.00,2015-01-31 13:45:00,
2015-01-31 08:50:00,17.6,8.2,29.29,South,189,2.2,5.8,66,0.00,,,0.00,VWS V14.00,2015-01-31 13:50:00,
2015-01-31 08:55:00,17.6,8.2,29.29,South,184,0.0,5.8,66,0.00,,,0.00,VWS V14.00,2015-01-31 13:55:00,
2015-01-31 09:01:00,17.6,8.2,29.29,SSW,209,0.0,0.0,66,0.00,,,0.00,VWS V14.00,2015-01-31 14:01:00,
2015-01-31 09:06:00,18.0,8.5,29.29,SSW,203,2.7,4.0,66,0.00,,,0.00,VWS V14.00,2015-01-31 14:06:00,
2015-01-31 09:11:00,19.0,9.6,29.29,WSW,248,2.7,5.4,66,0.00,,,0.00,VWS V14.00,2015-01-31 14:11:00,
2015-01-31 09:16:00,19.6,10.1,29.29,SW,228,0.0,5.4,66,0.00,,,0.00,VWS V14.00,2015-01-31 14:16:00,
2015-01-31 09:21:00,19.9,10.1,29.29,SW,228,0.0,5.4,65,0.00,,,0.00,VWS V14.00,2015-01-31 14:21:00,
2015-01-31 09:26:00,20.3,10.4,29.29,South,191,0.0,5.4,65,0.00,,,0.00,VWS V14.00,2015-01-31 14:26:00,
2015-01-31 09:31:00,20.8,10.9,29.29,South,191,0.0,0.0,65,0.00,,,0.00,VWS V14.00,2015-01-31 14:31:00,
2015-01-31 09:36:00,21.7,11.4,29.29,SSW,210,3.1,5.4,64,0.00,,,0.00,VWS V14.00,2015-01-31 14:36:00,
2015-01-31 09:41:00,22.3,12.0,29.29,SSW,203,0.0,5.8,64,0.00,,,0.00,VWS V14.00,2015-01-31 14:41:00,
2015-01-31 09:46:00,22.8,12.1,29.29,SSW,213,5.4,5.8,63,0.00,,,0.00,VWS V14.00,2015-01-31 14:46:00,
2015-01-31 09:51:00,23.4,12.6,29.29,WSW,240,5.4,5.8,63,0.00,,,0.00,VWS V14.00,2015-01-31 14:51:00,
2015-01-31 09:56:00,24.1,13.0,29.29,WSW,240,0.0,5.8,62,0.00,,,0.00,VWS V14.00,2015-01-31 14:56:00,
2015-01-31 10:01:00,24.4,12.9,29.29,WSW,241,0.0,3.6,61,0.00,,,0.00,VWS V14.00,2015-01-31 15:01:00,
2015-01-31 10:06:00,24.8,12.9,29.29,SSW,207,3.1,7.6,60,0.00,,,0.00,VWS V14.00,2015-01-31 15:06:00,
2015-01-31 10:11:00,25.3,13.4,29.29,SW,227,0.0,7.6,60,0.00,,,0.00,VWS V14.00,2015-01-31 15:11:00,
2015-01-31 10:16:00,26.2,13.9,29.29,South,173,2.7,7.6,59,0.00,,,0.00,VWS V14.00,2015-01-31 15:16:00,
2015-01-31 10:21:00,26.4,13.7,29.29,SW,215,0.0,7.6,58,0.00,,,0.00,VWS V14.00,2015-01-31 15:21:00,
2015-01-31 10:26:00,26.8,14.0,29.29,SSE,161,4.0,7.6,58,0.00,,,0.00,VWS V14.00,2015-01-31 15:26:00,
2015-01-31 10:32:00,27.0,13.8,29.29,SSW,204,3.6,5.8,57,0.00,,,0.00,VWS V14.00,2015-01-31 15:32:00,
2015-01-31 10:37:00,27.7,14.4,29.29,South,185,5.4,6.3,57,0.00,,,0.00,VWS V14.00,2015-01-31 15:37:00,
2015-01-31 10:42:00,27.9,14.2,29.29,SSW,210,4.9,6.3,56,0.00,,,0.00,VWS V14.00,2015-01-31 15:42:00,
2015-01-31 10:47:00,28.4,14.7,29.29,West,267,5.4,6.7,56,0.00,,,0.00,VWS V14.00,2015-01-31 15:47:00,
2015-01-31 10:52:00,28.8,14.6,29.29,SW,222,4.0,6.7,55,0.00,,,0.00,VWS V14.00,2015-01-31 15:52:00,
2015-01-31 10:57:00,29.1,15.0,29.29,SSE,155,4.0,7.6,55,0.00,,,0.00,VWS V14.00,2015-01-31 15:57:00,
2015-01-31 11:02:00,29.8,15.7,29.29,SSW,208,4.0,4.0,55,0.00,,,0.00,VWS V14.00,2015-01-31 16:02:00,
2015-01-31 11:07:00,30.0,15.4,29.29,SSW,203,3.6,8.1,54,0.00,,,0.00,VWS V14.00,2015-01-31 16:07:00,
2015-01-31 11:12:00,30.7,16.1,29.29,SSE,147,3.1,8.1,54,0.00,,,0.00,VWS V14.00,2015-01-31 16:12:00,
2015-01-31 11:17:00,30.9,16.2,29.26,South,182,4.0,8.1,54,0.00,,,0.00,VWS V14.00,2015-01-31 16:17:00,
2015-01-31 11:22:00,30.9,15.8,29.26,SSE,158,3.6,8.3,53,0.00,,,0.00,VWS V14.00,2015-01-31 16:22:00,
2015-01-31 11:27:00,31.5,16.3,29.26,SSW,212,2.7,8.3,53,0.00,,,0.00,VWS V14.00,2015-01-31 16:27:00,
2015-01-31 11:32:00,32.4,17.1,29.26,SE,145,4.9,4.9,53,0.00,,,0.00,VWS V14.00,2015-01-31 16:32:00,
2015-01-31 11:37:00,32.5,17.3,29.26,South,177,3.1,7.6,53,0.00,,,0.00,VWS V14.00,2015-01-31 16:37:00,
2015-01-31 11:42:00,33.4,18.2,29.26,SW,216,2.2,7.6,53,0.00,,,0.00,VWS V14.00,2015-01-31 16:42:00,
2015-01-31 11:47:00,34.0,18.2,29.26,South,181,4.0,7.6,52,0.00,,,0.00,VWS V14.00,2015-01-31 16:47:00,
2015-01-31 11:52:00,34.2,18.4,29.26,SSW,197,3.6,7.6,52,0.00,,,0.00,VWS V14.00,2015-01-31 16:52:00,
2015-01-31 11:57:00,34.9,19.1,29.26,SW,218,4.0,7.6,52,0.00,,,0.00,VWS V14.00,2015-01-31 16:57:00,
2015-01-31 12:03:00,35.1,18.8,29.26,WSW,250,3.6,7.6,51,0.00,,,0.00,VWS V14.00,2015-01-31 17:03:00,
2015-01-31 12:08:00,35.6,19.3,29.26,South,178,5.8,8.7,51,0.00,,,0.00,VWS V14.00,2015-01-31 17:08:00,
2015-01-31 12:13:00,35.6,19.3,29.26,SSW,197,0.0,8.7,51,0.00,,,0.00,VWS V14.00,2015-01-31 17:13:00,
2015-01-31 12:18:00,36.0,19.6,29.26,South,170,0.0,10.5,51,0.00,,,0.00,VWS V14.00,2015-01-31 17:18:00,
2015-01-31 12:23:00,36.7,20.3,29.26,SSW,199,4.5,10.5,51,0.00,,,0.00,VWS V14.00,2015-01-31 17:23:00,
2015-01-31 12:28:00,36.5,19.6,29.26,South,178,5.4,10.5,50,0.00,,,0.00,VWS V14.00,2015-01-31 17:28:00,
2015-01-31 12:33:00,36.0,18.7,29.23,SSW,198,5.8,8.1,49,0.00,,,0.00,VWS V14.00,2015-01-31 17:33:00,
2015-01-31 12:38:00,36.3,19.0,29.23,South,173,4.0,8.1,49,0.00,,,0.00,VWS V14.00,2015-01-31 17:38:00,
2015-01-31 12:43:00,37.4,20.5,29.23,WSW,255,2.7,8.1,50,0.00,,,0.00,VWS V14.00,2015-01-31 17:43:00,
2015-01-31 12:48:00,37.8,20.3,29.23,South,172,3.1,8.1,49,0.00,,,0.00,VWS V14.00,2015-01-31 17:48:00,
2015-01-31 12:53:00,37.6,19.7,29.23,SSW,212,5.8,8.1,48,0.00,,,0.00,VWS V14.00,2015-01-31 17:53:00,
2015-01-31 12:58:00,37.8,19.9,29.23,South,181,5.8,8.1,48,0.00,,,0.00,VWS V14.00,2015-01-31 17:58:00,
2015-01-31 13:03:00,37.6,19.2,29.23,South,180,3.6,8.1,47,0.00,,,0.00,VWS V14.00,2015-01-31 18:03:00,
2015-01-31 13:08:00,38.3,19.9,29.23,SSE,166,4.9,8.1,47,0.00,,,0.00,VWS V14.00,2015-01-31 18:08:00,
2015-01-31 13:13:00,39.0,20.5,29.21,SSW,192,3.1,8.1,47,0.00,,,0.00,VWS V14.00,2015-01-31 18:13:00,
2015-01-31 13:18:00,38.7,20.2,29.21,SW,228,3.1,8.1,47,0.00,,,0.00,VWS V14.00,2015-01-31 18:18:00,
2015-01-31 13:23:00,38.7,20.2,29.21,WSW,246,4.0,8.1,47,0.00,,,0.00,VWS V14.00,2015-01-31 18:23:00,
2015-01-31 13:28:00,38.7,19.7,29.21,SW,219,6.3,8.1,46,0.00,,,0.00,VWS V14.00,2015-01-31 18:28:00,
2015-01-31 13:33:00,37.6,18.7,29.21,WSW,241,5.4,5.4,46,0.00,,,0.00,VWS V14.00,2015-01-31 18:33:00,
2015-01-31 13:38:00,37.0,18.2,29.21,South,190,3.1,5.4,46,0.00,,,0.00,VWS V14.00,2015-01-31 18:38:00,
2015-01-31 13:44:00,36.5,17.7,29.21,WSW,243,2.7,6.3,46,0.00,,,0.00,VWS V14.00,2015-01-31 18:44:00,
2015-01-31 13:49:00,36.1,17.4,29.21,South,191,3.1,6.3,46,0.00,,,0.00,VWS V14.00,2015-01-31 18:49:00,
2015-01-31 13:54:00,36.0,17.7,29.21,South,173,5.8,8.3,47,0.00,,,0.00,VWS V14.00,2015-01-31 18:54:00,
2015-01-31 13:59:00,36.0,17.7,29.21,WSW,237,2.2,8.3,47,0.00,,,0.00,VWS V14.00,2015-01-31 18:59:00,
2015-01-31 14:04:00,36.0,17.7,29.21,WSW,237,2.7,9.6,47,0.00,,,0.00,VWS V14.00,2015-01-31 19:04:00,
2015-01-31 14:09:00,36.0,17.7,29.21,SW,227,3.1,9.6,47,0.00,,,0.00,VWS V14.00,2015-01-31 19:09:00,
2015-01-31 14:14:00,35.8,17.5,29.21,SW,220,5.8,9.6,47,0.00,,,0.00,VWS V14.00,2015-01-31 19:14:00,
2015-01-31 14:19:00,35.4,17.2,29.21,SSE,168,2.2,9.6,47,0.00,,,0.00,VWS V14.00,2015-01-31 19:19:00,
2015-01-31 14:24:00,35.2,17.0,29.21,WSW,242,5.4,9.6,47,0.00,,,0.00,VWS V14.00,2015-01-31 19:24:00,
2015-01-31 14:29:00,35.2,17.0,29.21,WSW,255,2.2,9.6,47,0.00,,,0.00,VWS V14.00,2015-01-31 19:29:00,
2015-01-31 14:34:00,35.2,17.0,29.21,SSW,213,2.7,7.6,47,0.00,,,0.00,VWS V14.00,2015-01-31 19:34:00,
2015-01-31 14:39:00,35.2,17.0,29.21,South,184,3.6,7.6,47,0.00,,,0.00,VWS V14.00,2015-01-31 19:39:00,
2015-01-31 14:44:00,35.2,17.0,29.21,SW,220,3.1,7.6,47,0.00,,,0.00,VWS V14.00,2015-01-31 19:44:00,
2015-01-31 14:49:00,35.2,17.0,29.21,South,177,3.6,7.6,47,0.00,,,0.00,VWS V14.00,2015-01-31 19:49:00,
2015-01-31 14:54:00,35.2,17.0,29.21,West,275,0.0,7.6,47,0.00,,,0.00,VWS V14.00,2015-01-31 19:54:00,
2015-01-31 14:59:00,35.2,17.0,29.21,WSW,249,0.0,7.6,47,0.00,,,0.00,VWS V14.00,2015-01-31 19:59:00,
2015-01-31 15:04:00,35.2,17.0,29.21,South,180,0.0,5.8,47,0.00,,,0.00,VWS V14.00,2015-01-31 20:04:00,
2015-01-31 15:09:00,35.1,16.9,29.21,WSW,240,3.6,7.6,47,0.00,,,0.00,VWS V14.00,2015-01-31 20:09:00,
2015-01-31 15:14:00,35.1,16.9,29.21,WSW,254,3.6,7.6,47,0.00,,,0.00,VWS V14.00,2015-01-31 20:14:00,
2015-01-31 15:20:00,34.9,16.7,29.21,WSW,243,0.0,7.6,47,0.00,,,0.00,VWS V14.00,2015-01-31 20:20:00,
2015-01-31 15:25:00,35.2,17.5,29.21,West,268,0.0,7.6,48,0.00,,,0.00,VWS V14.00,2015-01-31 20:25:00,
2015-01-31 15:30:00,35.2,17.5,29.21,SW,235,0.0,7.6,48,0.00,,,0.00,VWS V14.00,2015-01-31 20:30:00,
2015-01-31 15:35:00,35.2,17.5,29.21,SW,220,0.0,4.0,48,0.00,,,0.00,VWS V14.00,2015-01-31 20:35:00,
2015-01-31 15:40:00,34.9,17.2,29.21,SSW,211,5.4,6.3,48,0.00,,,0.00,VWS V14.00,2015-01-31 20:40:00,
2015-01-31 15:45:00,34.7,16.5,29.21,West,260,5.4,8.1,47,0.00,,,0.00,VWS V14.00,2015-01-31 20:45:00,
2015-01-31 15:50:00,34.9,17.2,29.21,SW,224,0.0,8.1,48,0.00,,,0.00,VWS V14.00,2015-01-31 20:50:00,
2015-01-31 15:55:00,34.7,17.0,29.21,WSW,247,0.0,8.1,48,0.00,,,0.00,VWS V14.00,2015-01-31 20:55:00,
2015-01-31 16:00:00,34.5,16.9,29.21,WSW,243,0.0,8.1,48,0.00,,,0.00,VWS V14.00,2015-01-31 21:00:00,
2015-01-31 16:05:00,34.3,16.7,29.21,South,177,3.1,4.9,48,0.00,,,0.00,VWS V14.00,2015-01-31 21:05:00,
2015-01-31 16:10:00,34.2,16.5,29.21,SSW,213,2.2,5.8,48,0.00,,,0.00,VWS V14.00,2015-01-31 21:10:00,
2015-01-31 16:15:00,34.2,17.0,29.21,SSW,197,2.7,5.8,49,0.00,,,0.00,VWS V14.00,2015-01-31 21:15:00,
2015-01-31 16:20:00,34.3,17.2,29.21,WSW,247,0.0,6.7,49,0.00,,,0.00,VWS V14.00,2015-01-31 21:20:00,
2015-01-31 16:25:00,34.3,17.2,29.21,WSW,247,0.0,6.7,49,0.00,,,0.00,VWS V14.00,2015-01-31 21:25:00,
2015-01-31 16:30:00,34.3,17.2,29.21,West,273,0.0,6.7,49,0.00,,,0.00,VWS V14.00,2015-01-31 21:30:00,
2015-01-31 16:35:00,34.3,17.2,29.21,WSW,246,0.0,5.4,49,0.00,,,0.00,VWS V14.00,2015-01-31 21:35:00,
2015-01-31 16:40:00,34.2,17.5,29.21,WSW,245,0.0,5.4,50,0.00,,,0.00,VWS V14.00,2015-01-31 21:40:00,
2015-01-31 16:45:00,34.2,17.5,29.21,SW,234,0.0,5.4,50,0.00,,,0.00,VWS V14.00,2015-01-31 21:45:00,
2015-01-31 16:50:00,34.2,17.5,29.21,SW,234,0.0,5.4,50,0.00,,,0.00,VWS V14.00,2015-01-31 21:50:00,
2015-01-31 16:55:00,34.2,17.5,29.21,SSW,199,0.0,5.4,50,0.00,,,0.00,VWS V14.00,2015-01-31 21:55:00,
2015-01-31 17:00:00,34.0,17.3,29.21,SW,220,3.6,3.6,50,0.00,,,0.00,VWS V14.00,2015-01-31 22:00:00,